PSLV DEB

基本信息
目录编号:
28432
目录名称:
PSLV DEB
国际标识:
2001-049NY
轨道中心:
EARTH
物体状态:
已陨落(2025-11-19)
发射日期:
2001-10-22 UTC
轨道信息
数据来源: 国际轨道数据
星历时间: 2025-10-26T00:34:39+0800
半长轴: 6768.268km
偏心率: 0.0002599
轨道倾角: 97.690°
近地点辐角: 213.260°
升交点赤经: 282.105°
平近点角: 146.849°
近地点: 388.373km
远地点: 391.893km
周期: 92.358分钟
每日圈数: 15.591448
详细信息
发射场:
SRI
轨道高度:
LEO
数据来源:
AOE Integration Group
参考系:
TEME
时间系统:
UTC
历元类型:
SGP4
2D轨道图
3D轨道图
轨道高度分析图
轨道倾角分析图
轨道综合分析图
查看轨道综合分析图